Flag for Albania Weather past 2 weeks in Durrës, Albania

Now
34 °F

Clear.


Feels Like: 31 °F
Forecast: 49 / 59 °F
Wind: 3 mph from South

Location: Tirana Airport

Current Time: Dec 23, 2014 at 6:10:03 AM

Latest Report: Dec 23, 2014 at 5:50 AM


Visibility: 10 mi

Pressure: 30.39 "Hg

Humidity: 81%

Dew point: 28 °F

Location of DurrësLocation

Historic Weather in Durrës — Graph

°F

Durrës temperature yesterday

Maximum temperature yesterday: 54 °F (at 12:50 PM)
Minimum temperature yesterday: 28 °F (at 2:50 AM)
Average temperature yesterday: 39 °F

Past Weeks' High & Low Weather Summary

 TemperatureHumidityPressure
High63 °F (Dec 8, 12:50 PM)100% (Dec 8, 4:50 AM)30.45 "Hg (Dec 8, 4:50 AM)
Low28 °F (Dec 22, 2:50 AM)28% (Dec 22, 1:50 PM)29.68 "Hg (Dec 9, 1:50 AM)
Average47 °F77%30.10 "Hg
* Reported Dec 8 4:20 AM — Dec 23 4:20 AM, Durrës, Weather by CustomWeather, © 2014

Note: Actual official high and low records may vary slightly from our data, if they occured in-between our weather recording intervals... More about our weather records

Advertising

Durrës weather history for previous 24 hours

 ConditionsComfort  
Time TempWeatherWind HumidityBarometerVisibility
4:20 AM
Dec 23
36 °FPassing clouds.3 mph81%30.39 "HgN/A
3:50 AM37 °FPassing clouds.2 mph75%30.39 "HgN/A
3:20 AM37 °FPassing clouds.2 mph75%30.39 "HgN/A
2:50 AM39 °FPassing clouds.2 mph75%30.39 "HgN/A
2:20 AM39 °FPassing clouds.5 mph75%30.39 "HgN/A
1:50 AM37 °FPassing clouds.5 mph75%30.39 "HgN/A
1:20 AM36 °FPassing clouds.3 mph75%30.39 "HgN/A
12:50 AM34 °FClear.2 mph81%30.39 "Hg10 mi
12:20 AM36 °FClear.5 mph70%30.39 "Hg10 mi
11:20 PM
Dec 22
36 °FClear.3 mph70%30.42 "Hg10 mi
10:50 PM36 °FClear.3 mph70%30.42 "Hg10 mi
10:20 PM36 °FClear.3 mph70%30.42 "Hg10 mi
9:50 PM36 °FClear.6 mph70%30.42 "Hg10 mi
9:20 PM37 °FClear.3 mph70%30.42 "Hg10 mi
8:50 PM36 °FClear.3 mph75%30.42 "Hg10 mi
8:20 PM37 °FClear.3 mph70%30.42 "Hg10 mi
7:20 PM37 °FClear.3 mph75%30.42 "Hg10 mi
6:50 PM37 °FClear.5 mph75%30.42 "Hg10 mi
6:20 PM41 °FClear.3 mph66%30.42 "Hg10 mi
5:50 PM41 °FClear.5 mph61%30.42 "Hg10 mi
5:20 PM43 °FPassing clouds.3 mph53%30.39 "HgN/A
4:50 PM43 °FPassing clouds.3 mph53%30.39 "HgN/A
4:20 PM50 °FClear.2 mph37%30.39 "Hg10 mi
3:50 PM52 °FSunny.3 mph32%30.42 "Hg10 mi
3:20 PM54 °FSunny.3 mph30%30.39 "Hg10 mi
2:50 PM54 °FSunny.5 mph30%30.39 "Hg10 mi
2:20 PM54 °FPassing clouds.5 mph30%30.39 "HgN/A
1:50 PM54 °FSunny.2 mph28%30.42 "Hg10 mi
1:20 PM54 °FPassing clouds.3 mph30%30.42 "HgN/A
12:50 PM54 °FSunny.1 mph35%30.42 "Hg10 mi
12:20 PM52 °FSunny.2 mph35%30.42 "Hg10 mi
11:50 AM50 °FSunny.1 mph35%30.45 "Hg10 mi
11:20 AM50 °FPassing clouds.3 mph35%30.45 "HgN/A
10:50 AM48 °FPassing clouds.3 mph37%30.45 "HgN/A
10:20 AM46 °FSunny.5 mph40%30.45 "Hg10 mi
9:50 AM43 °FSunny.2 mph57%30.45 "Hg10 mi
9:20 AM39 °FSunny.6 mph65%30.45 "Hg10 mi
8:50 AM37 °FSunny.2 mph70%30.45 "Hg10 mi
8:20 AM34 °FSunny.2 mph81%30.45 "Hg10 mi
7:50 AM30 °FSunny.2 mph86%30.42 "Hg10 mi
7:20 AM30 °FSunny.2 mph80%30.42 "Hg10 mi
6:50 AM30 °FClear.5 mph86%30.42 "Hg10 mi
6:20 AM28 °FClear.5 mph86%30.42 "Hg10 mi
Weather by CustomWeather, © 2014

See weather overviewHow to use our weather pages